Location: Browne Barr
(41.2080°N, 111.9480°W)
Time: 05:51:30
(UTC+00:00)

X-37B - Pass Details

Date: 04 August 2021
Orbit: 381 x 393 km, 45.0° (Epoch: 29 August)

Event Time Altitude Azimuth Distance (km) Brightness Sun altitude
Exits shadow 11:30:02 10° 275° (W) 1,373 2.9 -10.2°
Maximum altitude 11:33:00 46° 350° (N) 524 1.4 -9.7°
Drops below altitude 10° 11:36:03 10° 65° (ENE) 1,399 5.0 -9.2°
Sets 11:38:10 0° 72° (ENE) 2,254 6.3 -8.9°
